Overview Statistics Trail Chart Weather Telemetry Raw packets
 

This is the latest recevied weather packets stored in our database for station/object OM4MO-10. If no packets are shown the sender has not sent any weather packets the latest 10 day(s).

<< 1 2 3 4 5 >>
Time Temp. Humidity Pressure Rain* Wind** Luminosity Snow
1788644625 12.78° C 79% 1023.5 hPa - - - -
1788643725 12.78° C 79% 1023.4 hPa - - - -
1788642825 12.22° C 78% 1023.2 hPa - - - -
1788641925 12.78° C 79% 1022.9 hPa - - - -
1788641025 12.78° C 79% 1022.8 hPa - - - -
1788640124 12.78° C 79% 1022.8 hPa - - - -
1788639224 13.33° C 79% 1022.8 hPa - - - -
1788638324 13.89° C 79% 1022.8 hPa - - - -
1788637424 13.89° C 79% 1022.6 hPa - - - -
1788636524 13.89° C 79% 1022.5 hPa - - - -
1788635624 13.89° C 79% 1022.4 hPa - - - -
1788634724 14.44° C 79% 1022.3 hPa - - - -
1788633823 15° C 79% 1017.9 hPa - - - -
1788632923 16.67° C 79% 1016.8 hPa - - - -
1788632023 17.22° C 79% 1017.4 hPa - - - -
1788631123 17.78° C 79% 1018.5 hPa - - - -
1788630222 17.78° C 79% 1019.6 hPa - - - -
1788629322 19.44° C 79% 1022.5 hPa - - - -
1788628422 19.44° C 79% 1021.9 hPa - - - -
1788627522 20° C 79% 1022.6 hPa - - - -
1788626622 20.56° C 79% 1022.7 hPa - - - -
1788625722 21.11° C 79% 1021.2 hPa - - - -
1788624822 21.67° C 79% 1022.5 hPa - - - -
1788622121 22.78° C 79% 1023.3 hPa - - - -
1788621221 22.22° C 79% 1023.2 hPa - - - -

* Rain since midnight (hover to see other rain measurements)
** Current wind speed in m/s (hover to see current wind gust speed)